星链-34486 (STARLINK-34486)

导读

STARLINK-34486是美国太空探索技术公司(SpaceX)星链(Starlink)卫星互联网项目中的低轨通信卫星,于2025年6月25日发射入轨,是星链巨型星座组网的新增节点。它运行于近地轨道,依托星链系统架构,为全球提供高速低延迟宽带互联网服务,重点补全偏远区域网络覆盖,进一步拓展星链星座的服务范围与通信稳定性,推动全球卫星互联网的部署进程。

基本信息
目录编号:
64597
目录名称:
STARLINK-34486
国际标识:
2025-137D
轨道中心:
EARTH
卫星名称:
星链-34486
卫星全名:
星链-34486 (STARLINK-34486)
卫星状态:
在轨 (已飞行437 天)
发射日期:
2025-06-25 UTC
国别 :
美国 (US)
星等 :
--
轨道信息
数据来源 国际轨道数据
星历时间: 2026-09-05T13:54:55+0800
6小时前
查看轨道信息
半长轴: 6840.841km
偏心率: 0.000155
轨道倾角: 53.159°
近地点辐角 73.527°
升交点赤经 220.659°
平近点角 286.590°
近地点: 461.643km
远地点: 463.765km
周期: 93.848分钟
每日圈数: 15.343998
详细信息
固有亮度:
5
最大亮度:
2.5
卫星平台:
Starlink V1.0
覆盖范围:
全球
运营商:
太空探索技术公司
运营商所在国:
美国
制造商(研发单位):
太空探索技术公司
制造商所在国:
美国
使用方式:
暂无
卫星简介
Starlink 计划是 SpaceX 推出的全球卫星互联网项目,通过发射低轨道卫星,为全球尤其是偏远地区提供高速、低延迟的互联网服务。自 2019 年起,Starlink 已部署数千颗卫星,旨在缩小全球数字鸿沟,推动互联网普及。该项目还为军事、航空等行业提供通信支持,带来广泛经济效益。
2D轨道图
3D轨道图
轨道高度分析图
轨道倾角分析图
轨道综合分析图
查看轨道综合分析图
交会数据列表
事件ID 空间交会对象 最接近时刻(TCA) 交会距离 交会风险概率(CRP) 交会风险指数(CRI) 操作
CDM_260907-155806-459706-635421
2026-09-07T
15:58:51+0000
1.962 km
极远距离
2.287544E-6 低风险 0.42
CDM_260907-091005-794706-459721
2026-09-07T
09:10:14+0000
1.690 km
极远距离
2.211835E-6 低风险 0.42
CDM_260907-004005-246906-459721
2026-09-07T
00:40:33+0000
2.877 km
极远距离
1.106189E-6 低风险 0.36
CDM_260907-085804-942206-459721
2026-09-07T
08:58:44+0000
2.886 km
极远距离
1.022068E-6 低风险 0.35
CDM_260905-172005-286606-459721
2026-09-05T
17:20:40+0000
2.829 km
极远距离
9.347304E-7 极低风险 0.34